Home > Weather > Iserlohn > Past weeks

Flag for Germany Weather for the Past 2 Weeks in Iserlohn, North Rhine-Westphalia, Germany

Now
46 °F

Partly sunny.


Feels Like: 39 °F
Forecast: 37 / 45 °F
Wind: 21 mph from Southwest

Location: Dortmund / Wickede

Current Time: Feb 8, 2016 at 2:10:53 PM

Latest Report: Feb 8, 2016 at 1:20 PM


Visibility: N/A

Pressure: 29.24 "Hg

Humidity: 66%

Dew point: 36 °F

Location of IserlohnLocation

Historic Weather in Iserlohn — Graph

°F

Iserlohn Temperature Yesterday

Maximum temperature yesterday: 52 °F (at 8:50 AM)
Minimum temperature yesterday: 43 °F (at 8:50 PM)
Average temperature yesterday: 47 °F

High & Low Weather Summary for the Past Weeks

 TemperatureHumidityPressure
High54 °F (Jan 25, 3:20 PM)94% (Feb 1, 7:20 AM)30.39 "Hg (Feb 1, 7:20 AM)
Low36 °F (Jan 28, 7:50 PM)53% (Jan 28, 2:20 PM)29.24 "Hg (Feb 8, 11:20 AM)
Average45 °F76%29.99 "Hg
* Reported Jan 24 12:20 PM — Feb 8 12:50 PM, Iserlohn, Weather by CustomWeather, © 2016

Note: Actual official high and low records may vary slightly from our data, if they occured in-between our weather recording intervals... More about our weather records

Advertising

Iserlohn Weather History for the Previous 24 Hours

 ConditionsComfort  
Time TempWeatherWind HumidityBarometerVisibility
12:50 PM
Mon, Feb 8
46 °FScattered clouds.22 mph71%29.24 "HgN/A
12:20 PM46 °FPartly sunny.24 mph71%29.27 "HgN/A
11:50 AM46 °FBroken clouds.21 mph71%29.27 "HgN/A
11:20 AM46 °FBroken clouds.25 mph76%29.24 "HgN/A
10:50 AM45 °FScattered clouds.20 mph76%29.27 "HgN/A
10:20 AM45 °FLight rain. Partly sunny.25 mph76%29.27 "HgN/A
9:50 AM45 °FLight rain. Partly sunny.21 mph81%29.30 "Hg6 mi
9:20 AM45 °FLight rain. Partly sunny.18 mph81%29.30 "Hg5 mi
8:50 AM45 °FLight rain. Partly sunny.23 mph81%29.27 "Hg6 mi
8:20 AM45 °FLight rain. Partly sunny.24 mph81%29.27 "HgN/A
7:50 AM45 °FLight rain. Partly cloudy.26 mph76%29.27 "Hg5 mi
7:20 AM45 °FLight rain. Passing clouds.23 mph76%29.27 "HgN/A
6:50 AM45 °FLight rain. Passing clouds.22 mph76%29.30 "HgN/A
6:20 AM45 °FLight rain. Passing clouds.26 mph71%29.33 "HgN/A
5:50 AM46 °FLight rain. Passing clouds.26 mph62%29.33 "HgN/A
5:20 AM45 °FPassing clouds.23 mph66%29.33 "HgN/A
10:50 PM
Sun, Feb 7
43 °FClear.17 mph61%29.59 "Hg10 mi
10:20 PM43 °FClear.17 mph61%29.59 "Hg10 mi
9:50 PM43 °FClear.16 mph61%29.62 "Hg10 mi
9:20 PM43 °FClear.15 mph66%29.62 "Hg10 mi
8:50 PM43 °FClear.13 mph66%29.62 "Hg10 mi
8:20 PM45 °FClear.14 mph57%29.62 "Hg10 mi
7:50 PM45 °FClear.18 mph57%29.62 "Hg10 mi
7:20 PM45 °FClear.15 mph61%29.62 "Hg10 mi
6:50 PM45 °FClear.17 mph61%29.62 "Hg10 mi
6:20 PM45 °FClear.17 mph61%29.59 "Hg10 mi
5:50 PM46 °FClear.16 mph57%29.59 "Hg10 mi
5:20 PM45 °FSunny.18 mph61%29.59 "Hg10 mi
4:50 PM46 °FSunny.20 mph57%29.59 "Hg10 mi
4:20 PM46 °FScattered clouds.15 mph62%29.56 "HgN/A
3:50 PM46 °FSunny.18 mph62%29.56 "Hg10 mi
3:20 PM46 °FPartly sunny.14 mph62%29.56 "HgN/A
2:50 PM46 °FPartly sunny.18 mph62%29.56 "HgN/A
2:20 PM46 °FPartly sunny.17 mph66%29.56 "HgN/A
Weather by CustomWeather, © 2016

See weather overviewHow to use our weather pages